QPF
0.00 0.00 0.00 0.00 0.00 0.00 0.00 0.00 0.00 0.00 0.00 0.00 0.00 0.00 0.00 0.00 0.00 0.00 0.00 0.00 0.00 0.00 0.00 0.00 0.00 0.00 0.00 0.00 0.00 0.00 0.00 0.00 0.01 0.01 0.01 0.00 0.00 0.01 0.02 0.03 0.02 0.01 0.02
0.00 0.00 0.00 0.00 0.00 0.00 0.00 0.00 0.00 0.00 0.00 0.00 0.00 0.00 0.00 0.00 0.00 0.00 0.00 0.00 0.00 0.00 0.00 0.00 0.00 0.00 0.00 0.00 0.00 0.00 0.00 0.00 0.00 0.01 0.01 0.00 0.00 0.01 0.02 0.03 0.01 0.01 0.02
0.00 0.00 0.00 0.00 0.00 0.00 0.00 0.00 0.00 0.00 0.00 0.00 0.00 0.00 0.00 0.00 0.00 0.00 0.00 0.00 0.00 0.00 0.00 0.00 0.00 0.00 0.00 0.00 0.00 0.00 0.00 0.00 0.00 0.01 0.01 0.00 0.00 0.01 0.03 0.03 0.01 0.01 0.01
0.00 0.00 0.00 0.00 0.00 0.00 0.00 0.00 0.00 0.00 0.00 0.00 0.00 0.00 0.00 0.00 0.00 0.00 0.00 0.00 0.00 0.00 0.00 0.00 0.00 0.00 0.00 0.00 0.00 0.00 0.00 0.00 0.00 0.01 0.01 0.00 0.00 0.01 0.01 0.01 0.01 0.01 0.01
0.00 0.00 0.00 0.00 0.00 0.00 0.00 0.00 0.00 0.00 0.00 0.00 0.00 0.00 0.00 0.00 0.00 0.00 0.00 0.00 0.00 0.00 0.00 0.00 0.00 0.00 0.00 0.00 0.00 0.00 0.00 0.00 0.00 0.01 0.02 0.01 0.00 0.00 0.00 0.00 0.00 0.01 0.02
0.00 0.00 0.00 0.00 0.00 0.00 0.00 0.00 0.00 0.00 0.00 0.00 0.00 0.00 0.00 0.00 0.00 0.00 0.00 0.00 0.00 0.00 0.00 0.00 0.00 0.00 0.00 0.00 0.00 0.00 0.00 0.00 0.00 0.01 0.02 0.02 0.01 0.01 0.00 0.00 0.00 0.00 0.01
0.00 0.00 0.00 0.00 0.00 0.00 0.00 0.00 0.00 0.00 0.00 0.00 0.00 0.00 0.00 0.00 0.00 0.00 0.00 0.00 0.00 0.00 0.00 0.00 0.00 0.00 0.00 0.00 0.00 0.00 0.00 0.00 0.00 0.01 0.03 0.03 0.01 0.01 0.00 0.00 0.00 0.00 0.00
0.00 0.00 0.00 0.00 0.00 0.00 0.00 0.00 0.00 0.00 0.00 0.00 0.00 0.00 0.00 0.00 0.00 0.00 0.00 0.00 0.00 0.00 0.00 0.00 0.00 0.00 0.00 0.00 0.00 0.00 0.00 0.00 0.00 0.01 0.02 0.03 0.02 0.02 0.00 0.00 0.00 0.00 0.00
0.00 0.00 0.00 0.00 0.00 0.00 0.00 0.00 0.00 0.00 0.00 0.00 0.00 0.00 0.00 0.00 0.00 0.00 0.00 0.00 0.00 0.00 0.00 0.00 0.00 0.00 0.00 0.00 0.00 0.00 0.00 0.00 0.00 0.00 0.02 0.03 0.03 0.04 0.02 0.00 0.00 0.00 0.00
0.00 0.00 0.00 0.00 0.00 0.00 0.00 0.00 0.00 0.00 0.00 0.00 0.00 0.00 0.00 0.00 0.00 0.00 0.00 0.01 0.01 0.02 0.02 0.01 0.01 0.01 0.01 0.00 0.00 0.00 0.00 0.00 0.00 0.00 0.01 0.03 0.06 0.06 0.04 0.01 0.00 0.00 0.00
0.01 0.01 0.00 0.00 0.00 0.00 0.00 0.00 0.00 0.00 0.00 0.00 0.00 0.00 0.00 0.00 0.00 0.01 0.02 0.03 0.03 0.03 0.03 0.02 0.02 0.02 0.01 0.01 0.00 0.00 0.00 0.00 0.00 0.00 0.00 0.02 0.06 0.08 0.07 0.03 0.01 0.00 0.00
0.05 0.02 0.02 0.01 0.00 0.00 0.00 0.00 0.00 0.00 0.01 0.01 0.00 0.01 0.01 0.01 0.01 0.01 0.03 0.05 0.07 0.08 0.08 0.06 0.05 0.04 0.03 0.02 0.01 0.01 0.00 0.00 0.00 0.00 0.01 0.01 0.05 0.09 0.10 0.06 0.03 0.01 0.00
0.08 0.04 0.03 0.02 0.01 0.01 0.01 0.01 0.01 0.02 0.03 0.03 0.02 0.03 0.02 0.02 0.02 0.02 0.03 0.06 0.09 0.12 0.11 0.12 0.11 0.09 0.06 0.04 0.03 0.03 0.02 0.01 0.01 0.02 0.02 0.03 0.07 0.10 0.10 0.08 0.05 0.03 0.01
0.11 0.09 0.06 0.05 0.05 0.05 0.05 0.05 0.05 0.05 0.06 0.05 0.05 0.05 0.04 0.03 0.03 0.03 0.04 0.06 0.12 0.16 0.19 0.18 0.18 0.16 0.14 0.11 0.10 0.09 0.07 0.07 0.06 0.08 0.08 0.08 0.13 0.17 0.17 0.13 0.09 0.05 0.03
0.17 0.14 0.13 0.13 0.11 0.12 0.12 0.10 0.08 0.08 0.07 0.07 0.09 0.07 0.06 0.07 0.07 0.08 0.07 0.09 0.14 0.18 0.23 0.25 0.26 0.25 0.23 0.23 0.23 0.20 0.19 0.14 0.11 0.13 0.14 0.17 0.26 0.30 0.31 0.26 0.17 0.10 0.05
0.20 0.18 0.21 0.20 0.19 0.18 0.16 0.14 0.10 0.11 0.11 0.10 0.11 0.13 0.12 0.11 0.11 0.11 0.09 0.09 0.11 0.12 0.17 0.22 0.24 0.27 0.30 0.29 0.26 0.25 0.23 0.19 0.15 0.18 0.19 0.17 0.27 0.36 0.35 0.27 0.22 0.14 0.08
0.19 0.19 0.16 0.16 0.19 0.18 0.17 0.16 0.14 0.14 0.15 0.17 0.18 0.18 0.15 0.17 0.20 0.15 0.13 0.11 0.08 0.09 0.11 0.14 0.16 0.20 0.25 0.29 0.28 0.26 0.25 0.22 0.18 0.18 0.24 0.20 0.20 0.26 0.27 0.22 0.19 0.17 0.15
0.15 0.15 0.14 0.14 0.16 0.17 0.16 0.18 0.18 0.18 0.20 0.19 0.18 0.18 0.19 0.19 0.20 0.17 0.16 0.12 0.08 0.06 0.08 0.11 0.14 0.16 0.22 0.28 0.29 0.27 0.25 0.21 0.19 0.19 0.23 0.24 0.23 0.23 0.21 0.19 0.16 0.16 0.17
0.07 0.09 0.09 0.10 0.13 0.13 0.12 0.11 0.11 0.13 0.14 0.15 0.15 0.14 0.11 0.09 0.10 0.11 0.09 0.06 0.04 0.05 0.07 0.08 0.10 0.12 0.16 0.18 0.19 0.21 0.21 0.20 0.17 0.17 0.19 0.19 0.20 0.21 0.17 0.14 0.15 0.14 0.15
0.04 0.05 0.05 0.05 0.05 0.05 0.05 0.05 0.05 0.06 0.08 0.09 0.11 0.11 0.09 0.08 0.08 0.07 0.05 0.04 0.04 0.05 0.06 0.07 0.10 0.11 0.11 0.14 0.15 0.15 0.17 0.20 0.18 0.16 0.14 0.14 0.14 0.14 0.13 0.11 0.10 0.10 0.12
0.03 0.03 0.03 0.03 0.02 0.03 0.03 0.02 0.02 0.02 0.03 0.05 0.05 0.04 0.03 0.04 0.03 0.02 0.02 0.02 0.03 0.04 0.05 0.06 0.07 0.07 0.08 0.11 0.15 0.16 0.17 0.18 0.19 0.18 0.16 0.15 0.13 0.12 0.14 0.12 0.09 0.08 0.07
0.01 0.01 0.01 0.01 0.02 0.02 0.01 0.01 0.01 0.02 0.02 0.02 0.01 0.01 0.01 0.01 0.02 0.01 0.01 0.01 0.02 0.03 0.03 0.04 0.06 0.07 0.08 0.09 0.12 0.15 0.14 0.15 0.16 0.18 0.17 0.14 0.13 0.12 0.12 0.12 0.10 0.09 0.08
0.00 0.00 0.00 0.00 0.01 0.01 0.01 0.01 0.01 0.01 0.01 0.01 0.02 0.02 0.01 0.01 0.01 0.01 0.01 0.02 0.02 0.02 0.02 0.02 0.05 0.06 0.06 0.08 0.11 0.13 0.13 0.12 0.10 0.11 0.12 0.10 0.09 0.09 0.11 0.13 0.12 0.12 0.09
0.00 0.00 0.00 0.00 0.01 0.01 0.01 0.01 0.01 0.01 0.01 0.01 0.01 0.01 0.01 0.01 0.01 0.01 0.01 0.01 0.01 0.02 0.01 0.01 0.03 0.06 0.06 0.09 0.11 0.12 0.14 0.16 0.14 0.11 0.09 0.08 0.08 0.07 0.08 0.10 0.10 0.10 0.07
0.00 0.00 0.00 0.00 0.01 0.01 0.01 0.02 0.01 0.01 0.01 0.01 0.01 0.01 0.01 0.01 0.01 0.01 0.01 0.01 0.01 0.01 0.01 0.01 0.02 0.03 0.05 0.07 0.12 0.13 0.13 0.17 0.18 0.16 0.11 0.09 0.09 0.09 0.06 0.05 0.07 0.08 0.06
0.00 0.00 0.00 0.01 0.01 0.01 0.01 0.01 0.01 0.01 0.01 0.01 0.00 0.00 0.01 0.01 0.01 0.01 0.01 0.01 0.01 0.01 0.01 0.00 0.01 0.01 0.03 0.05 0.08 0.12 0.11 0.13 0.19 0.21 0.15 0.11 0.10 0.10 0.06 0.04 0.05 0.06 0.05
MSLP
1011.24 1010.91 1010.69 1010.67 1010.87 1011.26 1011.76 1012.28 1012.74 1013.07 1013.28 1013.37 1013.43 1013.49 1013.61 1013.80 1014.05 1014.33 1014.59 1014.80 1014.95 1015.04 1015.08 1015.12 1015.17 1015.26 1015.38 1015.54 1015.70 1015.85 1015.97 1016.06 1016.13 1016.18 1016.24 1016.31 1016.40 1016.51 1016.63 1016.75 1016.87 1016.99 1017.11
1010.94 1010.69 1010.55 1010.61 1010.86 1011.28 1011.79 1012.30 1012.75 1013.08 1013.30 1013.43 1013.53 1013.65 1013.82 1014.05 1014.31 1014.59 1014.82 1015.00 1015.10 1015.14 1015.15 1015.16 1015.20 1015.28 1015.40 1015.55 1015.70 1015.85 1015.96 1016.05 1016.13 1016.20 1016.28 1016.39 1016.51 1016.65 1016.79 1016.92 1017.04 1017.16 1017.28
1010.58 1010.42 1010.38 1010.51 1010.83 1011.28 1011.81 1012.32 1012.75 1013.08 1013.31 1013.47 1013.61 1013.77 1013.98 1014.23 1014.50 1014.76 1014.97 1015.11 1015.18 1015.19 1015.18 1015.17 1015.20 1015.28 1015.40 1015.54 1015.69 1015.82 1015.93 1016.02 1016.10 1016.19 1016.31 1016.45 1016.61 1016.78 1016.95 1017.10 1017.23 1017.34 1017.46
1010.27 1010.20 1010.25 1010.47 1010.84 1011.33 1011.86 1012.37 1012.79 1013.10 1013.33 1013.50 1013.66 1013.84 1014.07 1014.33 1014.60 1014.84 1015.02 1015.13 1015.18 1015.18 1015.17 1015.17 1015.22 1015.31 1015.43 1015.57 1015.70 1015.81 1015.91 1016.00 1016.09 1016.20 1016.34 1016.52 1016.71 1016.91 1017.10 1017.26 1017.41 1017.54 1017.66
1010.08 1010.09 1010.23 1010.52 1010.95 1011.46 1011.99 1012.47 1012.85 1013.14 1013.35 1013.51 1013.68 1013.87 1014.11 1014.36 1014.62 1014.84 1015.00 1015.10 1015.14 1015.15 1015.16 1015.19 1015.26 1015.37 1015.50 1015.64 1015.76 1015.87 1015.95 1016.02 1016.12 1016.24 1016.39 1016.58 1016.80 1017.01 1017.22 1017.40 1017.56 1017.71 1017.85
1010.05 1010.14 1010.35 1010.70 1011.16 1011.68 1012.18 1012.61 1012.95 1013.19 1013.37 1013.52 1013.68 1013.87 1014.10 1014.35 1014.59 1014.79 1014.93 1015.02 1015.07 1015.10 1015.14 1015.22 1015.33 1015.48 1015.63 1015.77 1015.89 1015.98 1016.04 1016.10 1016.18 1016.30 1016.45 1016.65 1016.86 1017.08 1017.29 1017.48 1017.66 1017.82 1017.99
1010.17 1010.32 1010.59 1010.99 1011.46 1011.95 1012.40 1012.77 1013.05 1013.24 1013.38 1013.51 1013.67 1013.86 1014.08 1014.32 1014.54 1014.71 1014.84 1014.92 1014.98 1015.04 1015.13 1015.26 1015.42 1015.60 1015.78 1015.93 1016.04 1016.12 1016.16 1016.21 1016.27 1016.37 1016.51 1016.68 1016.88 1017.09 1017.29 1017.48 1017.66 1017.85 1018.05
1010.38 1010.59 1010.91 1011.32 1011.78 1012.22 1012.61 1012.90 1013.11 1013.25 1013.37 1013.49 1013.65 1013.85 1014.07 1014.29 1014.49 1014.65 1014.75 1014.83 1014.89 1014.97 1015.09 1015.26 1015.47 1015.68 1015.89 1016.06 1016.17 1016.24 1016.27 1016.30 1016.34 1016.41 1016.53 1016.68 1016.84 1017.02 1017.20 1017.38 1017.56 1017.77 1018.00
1010.60 1010.86 1011.22 1011.63 1012.06 1012.44 1012.75 1012.97 1013.11 1013.22 1013.32 1013.45 1013.63 1013.85 1014.08 1014.30 1014.48 1014.60 1014.67 1014.72 1014.77 1014.86 1015.00 1015.19 1015.43 1015.68 1015.91 1016.09 1016.21 1016.28 1016.31 1016.33 1016.35 1016.40 1016.48 1016.60 1016.72 1016.86 1017.01 1017.17 1017.34 1017.56 1017.82
1010.78 1011.09 1011.47 1011.87 1012.25 1012.56 1012.79 1012.94 1013.04 1013.12 1013.24 1013.40 1013.61 1013.86 1014.11 1014.32 1014.48 1014.56 1014.59 1014.60 1014.62 1014.69 1014.82 1015.02 1015.27 1015.54 1015.78 1015.98 1016.12 1016.20 1016.23 1016.25 1016.26 1016.30 1016.35 1016.43 1016.52 1016.62 1016.73 1016.86 1017.03 1017.25 1017.53
1010.89 1011.25 1011.65 1012.03 1012.35 1012.59 1012.74 1012.83 1012.90 1012.98 1013.12 1013.32 1013.59 1013.88 1014.14 1014.35 1014.48 1014.52 1014.50 1014.45 1014.42 1014.45 1014.56 1014.75 1014.99 1015.26 1015.51 1015.72 1015.87 1015.97 1016.02 1016.04 1016.06 1016.09 1016.13 1016.18 1016.23 1016.29 1016.37 1016.47 1016.63 1016.85 1017.14
1010.96 1011.37 1011.77 1012.12 1012.38 1012.55 1012.63 1012.67 1012.71 1012.80 1012.98 1013.24 1013.55 1013.88 1014.16 1014.37 1014.46 1014.46 1014.37 1014.27 1014.18 1014.16 1014.23 1014.39 1014.62 1014.87 1015.12 1015.33 1015.49 1015.60 1015.67 1015.71 1015.74 1015.77 1015.81 1015.84 1015.87 1015.90 1015.95 1016.04 1016.18 1016.39 1016.70
1011.06 1011.49 1011.89 1012.20 1012.39 1012.48 1012.50 1012.49 1012.52 1012.63 1012.84 1013.14 1013.49 1013.85 1014.14 1014.33 1014.40 1014.35 1014.21 1014.05 1013.92 1013.86 1013.89 1014.01 1014.20 1014.43 1014.66 1014.86 1015.02 1015.14 1015.22 1015.28 1015.32 1015.36 1015.40 1015.43 1015.44 1015.46 1015.50 1015.56 1015.70 1015.91 1016.22
1011.24 1011.68 1012.05 1012.30 1012.42 1012.44 1012.40 1012.35 1012.37 1012.48 1012.71 1013.04 1013.41 1013.77 1014.06 1014.23 1014.27 1014.19 1014.02 1013.83 1013.67 1013.57 1013.57 1013.66 1013.81 1014.01 1014.21 1014.38 1014.53 1014.64 1014.72 1014.78 1014.84 1014.88 1014.92 1014.95 1014.97 1014.98 1015.01 1015.08 1015.21 1015.42 1015.73
1011.56 1011.97 1012.29 1012.47 1012.52 1012.47 1012.37 1012.29 1012.29 1012.40 1012.63 1012.96 1013.32 1013.66 1013.92 1014.07 1014.08 1013.98 1013.81 1013.61 1013.45 1013.35 1013.33 1013.39 1013.51 1013.66 1013.82 1013.95 1014.06 1014.14 1014.20 1014.26 1014.31 1014.36 1014.40 1014.43 1014.45 1014.47 1014.50 1014.58 1014.71 1014.93 1015.24
1012.00 1012.36 1012.60 1012.70 1012.67 1012.57 1012.43 1012.33 1012.31 1012.40 1012.61 1012.90 1013.22 1013.52 1013.73 1013.84 1013.84 1013.74 1013.59 1013.42 1013.29 1013.21 1013.20 1013.25 1013.34 1013.44 1013.53 1013.61 1013.66 1013.69 1013.71 1013.74 1013.77 1013.81 1013.84 1013.88 1013.90 1013.93 1013.98 1014.06 1014.21 1014.44 1014.75
1012.51 1012.78 1012.93 1012.95 1012.87 1012.72 1012.56 1012.44 1012.41 1012.49 1012.66 1012.90 1013.15 1013.37 1013.52 1013.59 1013.57 1013.48 1013.37 1013.26 1013.18 1013.15 1013.17 1013.22 1013.28 1013.33 1013.36 1013.36 1013.34 1013.31 1013.27 1013.25 1013.25 1013.26 1013.28 1013.30 1013.33 1013.37 1013.43 1013.53 1013.69 1013.93 1014.25
1012.98 1013.15 1013.21 1013.16 1013.04 1012.87 1012.72 1012.62 1012.59 1012.65 1012.77 1012.94 1013.11 1013.24 1013.32 1013.33 1013.29 1013.23 1013.16 1013.12 1013.11 1013.14 1013.20 1013.26 1013.30 1013.31 1013.27 1013.20 1013.10 1012.99 1012.89 1012.81 1012.76 1012.73 1012.72 1012.73 1012.75 1012.79 1012.86 1012.97 1013.15 1013.40 1013.72
1013.33 1013.39 1013.37 1013.28 1013.14 1012.99 1012.87 1012.80 1012.80 1012.85 1012.94 1013.04 1013.11 1013.15 1013.14 1013.10 1013.04 1012.98 1012.96 1012.98 1013.05 1013.14 1013.24 1013.32 1013.35 1013.32 1013.22 1013.08 1012.91 1012.73 1012.57 1012.43 1012.32 1012.25 1012.21 1012.18 1012.18 1012.21 1012.27 1012.39 1012.57 1012.83 1013.15
1013.48 1013.45 1013.37 1013.25 1013.13 1013.03 1012.98 1012.97 1013.01 1013.08 1013.14 1013.18 1013.17 1013.11 1013.02 1012.91 1012.82 1012.76 1012.78 1012.85 1012.97 1013.12 1013.25 1013.34 1013.36 1013.30 1013.17 1012.97 1012.75 1012.51 1012.30 1012.11 1011.96 1011.84 1011.75 1011.68 1011.65 1011.64 1011.69 1011.79 1011.97 1012.22 1012.54
1013.42 1013.32 1013.21 1013.09 1013.01 1012.98 1013.01 1013.09 1013.20 1013.30 1013.35 1013.34 1013.26 1013.12 1012.94 1012.77 1012.64 1012.57 1012.60 1012.70 1012.85 1013.03 1013.19 1013.29 1013.30 1013.23 1013.07 1012.85 1012.60 1012.34 1012.09 1011.87 1011.67 1011.51 1011.37 1011.26 1011.17 1011.12 1011.13 1011.20 1011.35 1011.57 1011.87
1013.18 1013.05 1012.93 1012.84 1012.81 1012.86 1012.98 1013.15 1013.33 1013.47 1013.54 1013.51 1013.37 1013.16 1012.91 1012.68 1012.50 1012.41 1012.42 1012.52 1012.69 1012.87 1013.03 1013.14 1013.15 1013.07 1012.92 1012.70 1012.45 1012.19 1011.94 1011.70 1011.49 1011.29 1011.10 1010.93 1010.78 1010.67 1010.61 1010.63 1010.73 1010.92 1011.18
1012.87 1012.73 1012.61 1012.55 1012.58 1012.71 1012.91 1013.16 1013.41 1013.59 1013.67 1013.63 1013.47 1013.21 1012.91 1012.62 1012.39 1012.26 1012.24 1012.32 1012.47 1012.64 1012.79 1012.89 1012.91 1012.85 1012.71 1012.52 1012.30 1012.07 1011.85 1011.62 1011.40 1011.17 1010.94 1010.71 1010.49 1010.30 1010.17 1010.11 1010.14 1010.28 1010.50
1012.59 1012.46 1012.36 1012.33 1012.40 1012.57 1012.83 1013.13 1013.42 1013.64 1013.74 1013.69 1013.51 1013.23 1012.89 1012.56 1012.29 1012.12 1012.06 1012.11 1012.22 1012.36 1012.50 1012.58 1012.61 1012.57 1012.47 1012.33 1012.17 1011.99 1011.81 1011.61 1011.39 1011.15 1010.88 1010.60 1010.31 1010.04 1009.82 1009.68 1009.64 1009.70 1009.87
1012.44 1012.34 1012.26 1012.23 1012.31 1012.49 1012.77 1013.08 1013.39 1013.62 1013.72 1013.68 1013.49 1013.20 1012.84 1012.49 1012.19 1011.99 1011.89 1011.89 1011.95 1012.06 1012.16 1012.24 1012.27 1012.26 1012.21 1012.13 1012.03 1011.92 1011.80 1011.64 1011.45 1011.21 1010.91 1010.58 1010.23 1009.88 1009.59 1009.36 1009.24 1009.22 1009.33
1012.48 1012.40 1012.32 1012.29 1012.34 1012.50 1012.74 1013.03 1013.31 1013.52 1013.62 1013.57 1013.38 1013.09 1012.74 1012.39 1012.08 1011.85 1011.71 1011.66 1011.69 1011.75 1011.82 1011.88 1011.93 1011.94 1011.94 1011.92 1011.90 1011.86 1011.79 1011.69 1011.53 1011.30 1011.00 1010.64 1010.24 1009.84 1009.47 1009.18 1008.98 1008.89 1008.93
Thickness
5830 5831 5829 5827 5824 5821 5818 5814 5811 5808 5805 5802 5799 5796 5794 5791 5789 5786 5784 5781 5779 5777 5774 5772 5770 5768 5767 5765 5764 5763 5761 5760 5758 5757 5757 5756 5754 5753 5752 5751 5749 5747 5746
5838 5832 5830 5827 5824 5821 5817 5813 5810 5806 5803 5801 5798 5795 5793 5790 5788 5785 5783 5781 5779 5776 5774 5772 5770 5769 5767 5765 5763 5762 5760 5758 5757 5757 5756 5755 5754 5753 5752 5750 5748 5746 5745
5838 5833 5829 5827 5824 5820 5816 5813 5809 5805 5802 5799 5797 5794 5791 5789 5787 5784 5782 5780 5778 5776 5774 5772 5770 5769 5767 5765 5763 5761 5759 5758 5756 5755 5754 5753 5753 5752 5751 5749 5748 5746 5744
5838 5833 5829 5826 5823 5819 5815 5812 5808 5805 5801 5798 5795 5793 5790 5788 5785 5783 5781 5779 5777 5775 5773 5771 5770 5768 5766 5765 5763 5761 5759 5757 5756 5754 5753 5752 5752 5751 5750 5748 5747 5745 5744
5836 5832 5828 5824 5821 5818 5814 5811 5807 5804 5800 5797 5794 5791 5789 5786 5784 5782 5779 5777 5775 5774 5772 5770 5768 5766 5765 5763 5762 5760 5758 5757 5755 5754 5752 5751 5751 5750 5749 5747 5746 5745 5743
5832 5829 5826 5822 5819 5815 5812 5809 5806 5802 5799 5796 5793 5790 5787 5785 5782 5780 5778 5776 5774 5772 5770 5768 5766 5765 5763 5762 5761 5759 5757 5756 5754 5753 5752 5750 5750 5749 5748 5747 5745 5744 5742
5829 5826 5823 5820 5816 5813 5810 5807 5803 5800 5797 5794 5791 5789 5786 5783 5781 5778 5776 5774 5772 5770 5768 5766 5764 5762 5761 5760 5759 5758 5756 5755 5753 5752 5751 5750 5749 5749 5748 5746 5745 5743 5742
5828 5823 5820 5816 5813 5810 5807 5803 5800 5797 5794 5792 5789 5786 5784 5781 5778 5776 5773 5771 5769 5767 5766 5764 5762 5760 5758 5758 5757 5756 5755 5754 5753 5751 5750 5749 5749 5748 5747 5746 5744 5742 5741
5824 5820 5816 5813 5810 5807 5803 5800 5797 5794 5791 5789 5786 5784 5781 5778 5775 5773 5771 5768 5766 5765 5763 5761 5759 5757 5756 5755 5754 5754 5753 5752 5751 5750 5749 5748 5748 5748 5747 5746 5744 5742 5740
5817 5815 5813 5810 5807 5804 5800 5797 5794 5791 5788 5785 5782 5780 5777 5775 5772 5770 5768 5766 5763 5762 5760 5758 5757 5755 5753 5752 5751 5751 5750 5749 5749 5748 5747 5747 5746 5746 5746 5745 5744 5742 5740
5810 5809 5808 5805 5803 5799 5796 5793 5790 5787 5784 5782 5779 5777 5774 5771 5769 5767 5764 5762 5760 5759 5757 5755 5754 5752 5750 5749 5747 5747 5746 5746 5746 5746 5746 5746 5745 5745 5745 5744 5744 5742 5741
5802 5802 5802 5800 5798 5795 5793 5790 5786 5783 5781 5778 5776 5774 5771 5768 5766 5763 5761 5759 5757 5756 5755 5753 5751 5749 5747 5745 5744 5742 5742 5742 5742 5743 5744 5744 5744 5744 5743 5743 5742 5742 5741
5801 5800 5798 5796 5794 5791 5789 5785 5782 5779 5777 5774 5771 5769 5767 5764 5761 5759 5757 5755 5754 5753 5751 5750 5748 5745 5743 5741 5739 5738 5738 5737 5738 5740 5742 5743 5743 5743 5742 5742 5741 5740 5740
5795 5795 5794 5793 5790 5786 5784 5781 5778 5775 5773 5770 5767 5764 5761 5759 5756 5754 5752 5751 5750 5749 5748 5746 5744 5742 5740 5738 5736 5734 5734 5733 5733 5735 5738 5740 5741 5741 5741 5741 5740 5739 5739
5790 5790 5789 5788 5784 5781 5777 5775 5773 5770 5768 5766 5762 5759 5757 5753 5750 5748 5747 5746 5746 5744 5743 5742 5740 5739 5737 5735 5733 5732 5731 5730 5731 5732 5734 5736 5738 5739 5739 5738 5738 5738 5738
5784 5783 5782 5780 5778 5775 5771 5768 5767 5765 5763 5760 5757 5753 5751 5748 5745 5742 5741 5741 5740 5738 5737 5736 5735 5734 5733 5732 5730 5730 5729 5728 5727 5728 5730 5732 5734 5736 5736 5736 5737 5736 5737
5775 5775 5775 5773 5770 5767 5764 5762 5759 5758 5755 5753 5750 5748 5745 5742 5739 5737 5734 5733 5733 5732 5731 5729 5729 5729 5728 5728 5727 5727 5726 5726 5725 5726 5727 5729 5730 5733 5735 5735 5736 5736 5737
5768 5767 5767 5768 5763 5760 5757 5754 5752 5749 5747 5745 5743 5741 5738 5736 5733 5731 5727 5726 5725 5724 5724 5722 5721 5721 5721 5722 5722 5723 5723 5723 5724 5723 5724 5726 5727 5729 5732 5733 5735 5736 5736
5760 5759 5758 5758 5756 5753 5751 5748 5746 5742 5739 5737 5735 5732 5731 5729 5726 5723 5720 5719 5718 5717 5716 5715 5715 5714 5714 5715 5716 5718 5719 5720 5721 5721 5722 5724 5725 5727 5729 5731 5733 5734 5734
5754 5752 5751 5749 5747 5746 5743 5740 5736 5733 5730 5728 5726 5725 5723 5721 5718 5715 5713 5712 5711 5709 5708 5708 5707 5708 5709 5709 5711 5714 5715 5717 5718 5719 5720 5722 5724 5726 5727 5729 5730 5732 5733
5747 5745 5743 5741 5739 5737 5733 5728 5724 5720 5719 5718 5717 5716 5714 5712 5709 5707 5705 5703 5702 5701 5700 5700 5700 5700 5701 5703 5702 5703 5708 5712 5714 5717 5719 5720 5722 5725 5726 5727 5730 5731 5732
5742 5740 5737 5735 5733 5730 5726 5722 5718 5714 5711 5709 5707 5706 5704 5702 5700 5699 5697 5695 5695 5694 5693 5692 5692 5692 5693 5696 5694 5693 5694 5700 5708 5715 5716 5717 5720 5723 5725 5726 5728 5729 5730
5739 5737 5735 5731 5728 5724 5721 5716 5711 5705 5701 5697 5694 5693 5693 5691 5690 5689 5688 5687 5686 5685 5684 5684 5684 5683 5683 5686 5688 5687 5685 5688 5697 5706 5711 5715 5717 5719 5722 5725 5726 5728 5729
5737 5736 5732 5727 5722 5718 5714 5707 5700 5693 5688 5686 5683 5683 5682 5682 5681 5680 5679 5679 5678 5677 5676 5676 5677 5676 5676 5676 5679 5682 5683 5685 5685 5691 5702 5708 5712 5715 5718 5722 5725 5726 5727
5735 5731 5726 5721 5715 5711 5706 5700 5692 5686 5682 5678 5675 5673 5672 5672 5671 5670 5670 5670 5669 5668 5668 5668 5668 5668 5669 5669 5669 5672 5675 5678 5680 5681 5687 5696 5703 5709 5714 5718 5721 5723 5724
5728 5723 5718 5712 5706 5701 5696 5690 5684 5678 5673 5669 5666 5662 5661 5660 5660 5660 5660 5660 5660 5659 5659 5659 5659 5659 5660 5661 5662 5664 5666 5668 5672 5674 5678 5684 5690 5699 5706 5712 5715 5718 5720